GW5798 Weather Reports


time (UTC)temp
C
wind
direction
speed
KPH
gust
KPH
rain 1hr
cm
rain 24hr
cm
rain mn
cm
humidity
%
barometer
mb
20260506092024 24 99 1.6 12.9 0.00 0.00 0.00 92 1008.6
20260506091115 24 209 1.6 9.7 0.00 0.00 0.00 91 1008.5
20260506090105 24 142 1.6 9.7 0.00 0.00 0.00 91 1008.6
20260506085055 24 127 1.6 6.4 0.00 0.00 0.00 91 1008.7
20260506084105 24 163 1.6 11.3 0.00 0.00 0.00 91 1008.7
20260506083055 24 127 1.6 6.4 0.00 0.00 0.00 91 1008.9
20260506082025 24 180 3.2 6.4 0.00 0.00 0.00 91 1008.9
20260506081116 24 161 1.6 4.8 0.00 0.00 0.00 91 1008.9
20260506080106 24 252 1.6 4.8 0.00 0.00 0.00 92 1009.0
20260506073036 24 125 1.6 3.2 0.00 0.00 0.00 92 1009.3
20260506072026 24 198 1.6 6.4 0.00 0.00 0.00 92 1009.5
20260506071016 24 157 1.6 6.4 0.00 0.00 0.00 92 1009.4
20260506070147 24 111 1.6 6.4 0.00 0.00 0.00 92 1009.5
20260506062107 24 121 1.6 6.4 0.00 0.00 0.00 92 1009.6
20260506061017 24 186 1.6 4.8 0.00 0.00 0.00 92 1009.8
20260506060107 24 257 1.6 3.2 0.00 0.00 0.00 92 1009.8
20260506051017 24 120 1.6 9.7 0.00 0.00 0.00 91 1009.8
20260506050108 24 185 1.6 4.8 0.00 0.00 0.00 91 1009.6
20260506045058 25 169 1.6 6.4 0.00 0.00 0.00 90 1009.7
20260506044048 25 184 1.6 4.8 0.00 0.00 0.00 89 1009.8
20260506043038 25 125 1.6 6.4 0.00 0.00 0.00 89 1009.7
20260506042028 25 147 1.6 4.8 0.00 0.00 0.00 88 1009.6
20260506041018 25 193 3.2 11.3 0.00 0.00 0.00 87 1009.4
20260506040209 25 230 3.2 9.7 0.00 0.00 0.00 86 1009.6
20260506035059 25 135 1.6 3.2 0.00 0.00 0.00 86 1009.4
20260506034049 25 213 1.6 9.7 0.00 0.00 0.00 86 1009.4
20260506033039 25 151 3.2 11.3 0.00 0.00 0.00 86 1009.1
20260506032049 25 162 1.6 6.4 0.00 0.00 0.00 86 1009.0
20260506031019 25 158 1.6 12.9 0.00 0.00 0.00 86 1008.8
20260506030130 25 197 1.6 6.4 0.00 0.00 0.00 85 1008.7
20260506025100 25 156 3.2 9.7 0.00 0.00 0.00 85 1008.8
20260506024109 25 136 3.2 9.7 0.00 0.00 0.00 85 1008.6
20260506023039 25 176 3.2 6.4 0.00 0.00 0.00 84 1008.5
20260506022029 26 166 3.2 11.3 0.00 0.00 0.00 84 1008.4
20260506021019 26 138 3.2 9.7 0.00 0.00 0.00 83 1008.3
20260506020110 26 144 3.2 9.7 0.00 0.00 0.00 82 1008.2
20260506015100 26 130 3.2 6.4 0.00 0.00 0.00 82 1008.0
20260506014050 26 169 3.2 11.3 0.00 0.00 0.00 81 1007.8
20260506013040 26 116 1.6 11.3 0.00 0.00 0.00 80 1007.8
20260506012050 26 194 1.6 6.4 0.00 0.00 0.00 79 1007.5
20260506011020 26 186 3.2 12.9 0.00 0.00 0.00 79 1007.3
20260506010111 26 172 3.2 9.7 0.00 0.00 0.00 79 1007.3
20260506005101 26 162 3.2 14.5 0.00 0.00 0.00 78 1007.2
20260506004051 26 176 3.2 9.7 0.00 0.00 0.00 78 1007.2
20260506003041 26 104 1.6 9.7 0.00 0.00 0.00 78 1007.1
20260506002051 27 164 3.2 11.3 0.00 0.00 0.00 77 1006.9
20260506001041 27 131 3.2 12.9 0.00 0.00 0.00 77 1007.1
20260506000112 27 145 1.6 6.4 0.00 0.00 0.00 78 1007.2
20260505235102 27 238 1.6 12.9 0.00 0.00 0.00 77 1007.0
20260505234052 27 178 6.4 12.9 0.00 0.00 0.00 76 1007.0
20260505233041 27 179 3.2 14.5 0.00 0.00 0.00 76 1007.0
20260505232032 27 138 1.6 12.9 0.00 0.00 0.00 76 1007.0
20260505231022 27 150 1.6 6.4 0.00 0.00 0.00 76 1006.9
20260505230112 27 165 3.2 14.5 0.00 0.00 0.00 76 1007.1
20260505225103 27 118 1.6 14.5 0.00 0.00 0.00 75 1006.9
20260505224053 27 222 1.6 11.3 0.00 0.00 0.00 75 1007.0
20260505223042 28 87 4.8 14.5 0.00 0.00 0.00 74 1007.1
20260505222032 28 247 3.2 9.7 0.00 0.00 0.00 73 1007.1
20260505221022 28 220 3.2 9.7 0.00 0.00 0.00 73 1007.1
20260505220113 28 127 3.2 12.9 0.00 0.00 0.00 73 1007.4
20260505215103 28 103 1.6 11.3 0.00 0.00 0.00 73 1007.3
20260505214113 28 166 3.2 11.3 0.00 0.00 0.00 71 1007.6
20260505213043 28 190 1.6 6.4 0.00 0.00 0.00 72 1007.5
20260505212033 28 118 4.8 14.5 0.00 0.00 0.00 73 1007.8
20260505211023 28 349 3.2 12.9 0.00 0.00 0.00 73 1008.0
20260505210134 28 137 4.8 11.3 0.00 0.00 0.00 73 1008.0
20260505205104 28 146 3.2 14.5 0.00 0.00 0.00 73 1008.3
20260505204054 28 94 3.2 16.1 0.00 0.00 0.00 73 1008.4
20260505203044 28 123 1.6 6.4 0.00 0.00 0.00 72 1008.4
20260505202054 28 143 3.2 11.3 0.00 0.00 0.00 72 1008.6
20260505201024 29 187 3.2 4.8 0.00 0.00 0.00 72 1008.7
20260505200115 28 315 1.6 14.5 0.00 0.00 0.00 73 1008.8
20260505195105 28 136 3.2 12.9 0.00 0.00 0.00 73 1008.9
20260505194115 28 125 3.2 6.4 0.00 0.00 0.00 74 1009.1
20260505193045 27 200 3.2 12.9 0.00 0.00 0.00 75 1009.0
20260505192035 28 130 3.2 12.9 0.00 0.00 0.00 74 1009.2
20260505191025 28 150 3.2 9.7 0.00 0.00 0.00 75 1009.3
20260505190115 28 174 3.2 4.8 0.00 0.00 0.00 74 1009.1
20260505185106 28 203 1.6 11.3 0.00 0.00 0.00 75 1009.2
20260505184055 27 94 3.2 11.3 0.00 0.00 0.00 75 1009.4
20260505183046 27 171 1.6 16.1 0.00 0.00 0.00 76 1009.5
20260505182035 27 145 3.2 9.7 0.00 0.00 0.00 77 1009.5
20260505181025 27 105 1.6 3.2 0.00 0.00 0.00 77 1009.6
20260505180016 27 229 1.6 9.7 0.00 0.00 0.00 78 1009.8
20260505175107 26 138 1.6 6.4 0.00 0.00 0.00 80 1010.0
20260505174056 26 125 1.6 9.7 0.00 0.00 0.00 78 1009.9
20260505173047 26 116 1.6 11.3 0.00 0.00 0.00 79 1009.9
20260505172116 26 155 3.2 9.7 0.00 0.00 0.00 78 1009.9
20260505171026 26 191 1.6 6.4 0.00 0.00 0.00 79 1009.9
20260505170016 26 122 1.6 6.4 0.00 0.00 0.00 80 1010.1
20260505165127 26 293 1.6 11.3 0.00 0.00 0.00 81 1010.1
20260505164137 26 310 1.6 4.8 0.00 0.00 0.00 81 1010.0
20260505163047 26 109 4.8 11.3 0.00 0.00 0.00 82 1009.9
20260505162037 26 146 1.6 4.8 0.00 0.00 0.00 82 1010.1
20260505161033 26 152 3.2 9.7 0.00 0.00 0.00 82 1009.9
20260505153108 25 107 3.2 9.7 0.00 0.00 0.00 86 1009.6
20260505152038 24 198 0.0 3.2 0.00 0.00 0.00 91 1009.6
20260505151028 23 143 1.6 4.8 0.00 0.00 0.00 90 1009.7
20260505124120 22 161 3.2 4.8 0.00 0.00 0.00 92 1009.2
20260505123050 22 163 1.6 3.2 0.00 0.00 0.00 93 1009.3
20260505122040 21 190 1.6 4.8 0.00 0.00 0.00 93 1009.2
20260505121030 21 239 1.6 4.8 0.00 0.00 0.00 93 1009.0
20260505120040 21 179 1.6 3.2 0.00 0.00 0.00 93 1008.9
20260505115111 21 180 1.6 4.8 0.00 0.00 0.00 93 1008.7
20260505114101 21 170 1.6 4.8 0.00 0.00 0.00 93 1008.9
20260505113051 21 142 1.6 4.8 0.00 0.00 0.00 93 1009.0
20260505112041 21 209 1.6 9.7 0.00 0.00 0.00 92 1008.9
20260505111031 21 102 1.6 6.4 0.00 0.00 0.00 92 1008.9
20260505102043 21 136 1.6 6.4 0.00 0.00 0.00 92 1008.9
20260505101031 21 173 1.6 4.8 0.00 0.00 0.00 92 1008.8
20260505100022 21 217 1.6 3.2 0.00 0.00 0.00 92 1009.0
20260505095112 21 224 0.0 1.6 0.00 0.00 0.00 91 1009.1
20260505094123 21 171 0.0 3.2 0.00 0.00 0.00 91 1008.9
20260505093052 21 196 1.6 3.2 0.00 0.00 0.00 91 1009.0